Погода в Солнечном

Россия / Хабаровский край     50°43′23″N   136°38′31″E
темп.,
°C
ветер,
м/с
пор.,
м/с
влажн.,
%
обл.,
%
осадки,
мм/ч
давл.,
гПа
погр.,
м
25 января, пн
пн2501:00−22ссз229494 0.1 103275
04:00−23сз129168 0.1 103420
07:00−24ссз11840 0.0 103520
10:00−22ссз00780 0.0 103633
13:00−18всв11720 0.0 1035277
16:00−19всв118110 0.0 1035245
19:00−23з119291 0.0 103720
22:00−23сз019056 0.0 103620
26 января, вт
вт2601:00−24ссз119059 0.0 103420
04:00−25ссз229176 0.0 103228
07:00−24с2291100 0.0 102978
10:00−23с2388100 0.0 1027148
13:00−21с2484100 0.0 1023227
16:00−21с3491100 0.1 1020239
19:00−21ссз3597100 0.2 1020209
22:00−22ссз2495100 0.3 1019182
27 января, ср
ср2701:00−22ссз3693100 0.1 1018241
04:00−23ссз3792100 0.1 1017269
07:00−23ссз4890100 0.1 1017316
10:00−23ссз498798 0.1 1017358
13:00−22ссз4781100 0.0 1016477
16:00−22ссз4782100 0.0 1015533
19:00−24сз388984 0.0 1016372
22:00−24сз388991 0.1 1017598
28 января, чт
чт2801:00−24сз2689100 0.1 1017473
04:00−24зсз1489100 0.1 1018175
07:00−25з1287100 0.0 101923
10:00−23ююз1181100 0.0 102082
13:00−20ююв227570 0.0 1020662
16:00−21ююв348985 0.0 1019448
19:00−25ю229996 0.0 102032
22:00−26ю229770 0.0 102123
29 января, пт
пт2901:00−27ю229727 0.0 102127
04:00−28ю119627 0.0 102119
07:00−29с019536 0.0 102019
10:00−26с128943 0.0 101986
13:00−22с368394 0.0 1016391
16:00−21ссз488296 0.0 1016435
19:00−22ссз4979100 0.0 1017475
22:00−21ссз51077100 0.0 1018506